| time (UTC) | temp C | wind direction | speed KPH | gust KPH | rain 1hr cm | rain 24hr cm | rain mn cm | humidity % | barometer mb |
| 20260504215318 | 22 | 101 | 3.2 | 11.3 | 0.00 | 0.00 | 0.00 | 40 | 1007.8 |
| 20260504215043 | 22 | 88 | 8.0 | 11.3 | 0.00 | 0.00 | 0.00 | 39 | 1007.9 |
| 20260504214318 | 22 | 317 | 0.0 | 12.9 | 0.00 | 0.00 | 0.00 | 40 | 1007.9 |
| 20260504213818 | 22 | 235 | 3.2 | 12.9 | 0.00 | 0.00 | 0.00 | 39 | 1007.9 |
| 20260504213318 | 22 | 77 | 0.0 | 9.7 | 0.00 | 0.00 | 0.00 | 39 | 1007.6 |
| 20260504212818 | 22 | 164 | 1.6 | 9.7 | 0.00 | 0.00 | 0.00 | 39 | 1007.8 |
| 20260504212305 | 22 | 331 | 0.0 | 11.3 | 0.00 | 0.00 | 0.00 | 41 | 1007.8 |
| 20260504211806 | 22 | 175 | 3.2 | 11.3 | 0.00 | 0.00 | 0.00 | 40 | 1007.6 |
| 20260504211305 | 22 | 198 | 4.8 | 12.9 | 0.00 | 0.00 | 0.00 | 40 | 1007.8 |
| 20260504210753 | 22 | 196 | 9.7 | 12.9 | 0.00 | 0.00 | 0.00 | 39 | 1007.7 |
| 20260504210254 | 22 | 102 | 1.6 | 11.3 | 0.00 | 0.00 | 0.00 | 40 | 1007.7 |
| 20260504210013 | 22 | 220 | 0.0 | 12.9 | 0.00 | 0.00 | 0.00 | 41 | 1007.7 |
| 20260504205242 | 22 | 171 | 0.0 | 12.9 | 0.00 | 0.00 | 0.00 | 39 | 1007.8 |
| 20260504205008 | 22 | 138 | 3.2 | 9.7 | 0.00 | 0.00 | 0.00 | 39 | 1007.8 |
| 20260504204242 | 22 | 89 | 0.0 | 14.5 | 0.00 | 0.00 | 0.00 | 41 | 1008.0 |
| 20260504203730 | 22 | 3 | 0.0 | 16.1 | 0.00 | 0.00 | 0.00 | 38 | 1007.9 |
| 20260504203230 | 22 | 147 | 9.7 | 16.1 | 0.00 | 0.00 | 0.00 | 39 | 1008.1 |
| 20260504202958 | 22 | 325 | 6.4 | 16.1 | 0.00 | 0.00 | 0.00 | 38 | 1008.1 |
| 20260504202230 | 22 | 107 | 3.2 | 16.1 | 0.00 | 0.00 | 0.00 | 39 | 1007.7 |
| 20260504201730 | 22 | 153 | 1.6 | 20.9 | 0.00 | 0.00 | 0.00 | 40 | 1008.1 |
| 20260504201457 | 22 | 122 | 1.6 | 20.9 | 0.00 | 0.00 | 0.00 | 39 | 1008.2 |
| 20260504200730 | 22 | 141 | 4.8 | 14.5 | 0.00 | 0.00 | 0.00 | 38 | 1008.4 |
| 20260504200231 | 22 | 135 | 4.8 | 14.5 | 0.00 | 0.00 | 0.00 | 39 | 1008.5 |
| 20260504195730 | 22 | 203 | 8.0 | 14.5 | 0.00 | 0.00 | 0.00 | 39 | 1008.6 |
| 20260504195454 | 22 | 150 | 1.6 | 11.3 | 0.00 | 0.00 | 0.00 | 39 | 1008.7 |
| 20260504194730 | 22 | 88 | 0.0 | 11.3 | 0.00 | 0.00 | 0.00 | 39 | 1008.5 |
| 20260504194230 | 22 | 300 | 3.2 | 14.5 | 0.00 | 0.00 | 0.00 | 38 | 1008.6 |
| 20260504193729 | 22 | 142 | 3.2 | 17.7 | 0.00 | 0.00 | 0.00 | 39 | 1008.9 |
| 20260504193230 | 22 | 131 | 4.8 | 17.7 | 0.00 | 0.00 | 0.00 | 40 | 1008.7 |
| 20260504192730 | 22 | 248 | 1.6 | 11.3 | 0.00 | 0.00 | 0.00 | 39 | 1008.9 |
| 20260504192229 | 22 | 145 | 3.2 | 11.3 | 0.00 | 0.00 | 0.00 | 39 | 1009.0 |
| 20260504191730 | 22 | 320 | 0.0 | 12.9 | 0.00 | 0.00 | 0.00 | 40 | 1009.2 |
| 20260504191450 | 22 | 113 | 1.6 | 12.9 | 0.00 | 0.00 | 0.00 | 39 | 1009.0 |
| 20260504190730 | 23 | 284 | 0.0 | 9.7 | 0.00 | 0.00 | 0.00 | 38 | 1009.1 |
| 20260504190230 | 23 | 25 | 0.0 | 9.7 | 0.00 | 0.00 | 0.00 | 41 | 1009.1 |
| 20260504185730 | 23 | 233 | 0.0 | 9.7 | 0.00 | 0.00 | 0.00 | 39 | 1009.4 |
| 20260504185456 | 22 | 315 | 1.6 | 12.9 | 0.00 | 0.00 | 0.00 | 38 | 1009.4 |
| 20260504184730 | 22 | 231 | 1.6 | 12.9 | 0.00 | 0.00 | 0.00 | 37 | 1009.6 |
| 20260504184230 | 22 | 272 | 1.6 | 14.5 | 0.00 | 0.00 | 0.00 | 39 | 1009.7 |
| 20260504183730 | 22 | 250 | 3.2 | 14.5 | 0.00 | 0.00 | 0.00 | 39 | 1009.6 |
| 20260504183230 | 22 | 195 | 1.6 | 11.3 | 0.00 | 0.00 | 0.00 | 39 | 1009.7 |
| 20260504182949 | 22 | 271 | 6.4 | 11.3 | 0.00 | 0.00 | 0.00 | 39 | 1009.9 |
| 20260504182217 | 21 | 85 | 1.6 | 14.5 | 0.00 | 0.00 | 0.00 | 38 | 1009.7 |
| 20260504181718 | 22 | 165 | 1.6 | 14.5 | 0.00 | 0.00 | 0.00 | 39 | 1010.0 |
| 20260504181218 | 22 | 272 | 1.6 | 4.8 | 0.00 | 0.00 | 0.00 | 37 | 1010.0 |
| 20260504180936 | 22 | 218 | 3.2 | 12.9 | 0.00 | 0.00 | 0.00 | 41 | 1010.1 |
| 20260504180217 | 21 | 125 | 1.6 | 12.9 | 0.00 | 0.00 | 0.00 | 41 | 1010.0 |
| 20260504175717 | 22 | 251 | 0.0 | 9.7 | 0.00 | 0.00 | 0.00 | 38 | 1010.3 |
| 20260504175218 | 22 | 288 | 4.8 | 6.4 | 0.00 | 0.00 | 0.00 | 38 | 1010.2 |
| 20260504174706 | 22 | 103 | 1.6 | 6.4 | 0.00 | 0.00 | 0.00 | 41 | 1010.2 |
| 20260504174206 | 21 | 287 | 3.2 | 16.1 | 0.00 | 0.00 | 0.00 | 40 | 1010.3 |
| 20260504173706 | 21 | 169 | 1.6 | 16.1 | 0.00 | 0.00 | 0.00 | 40 | 1010.3 |
| 20260504173154 | 21 | 74 | 4.8 | 12.9 | 0.00 | 0.00 | 0.00 | 39 | 1010.2 |
| 20260504172654 | 21 | 248 | 3.2 | 12.9 | 0.00 | 0.00 | 0.00 | 38 | 1010.4 |
| 20260504172154 | 20 | 18 | 1.6 | 12.9 | 0.00 | 0.00 | 0.00 | 42 | 1010.3 |
| 20260504171900 | 21 | 145 | 6.4 | 12.9 | 0.00 | 0.00 | 0.00 | 38 | 1010.7 |
| 20260504171142 | 21 | 293 | 4.8 | 11.3 | 0.00 | 0.00 | 0.00 | 39 | 1010.4 |
| 20260504170642 | 20 | 156 | 1.6 | 11.3 | 0.00 | 0.00 | 0.00 | 40 | 1010.9 |
| 20260504170129 | 21 | 300 | 3.2 | 9.7 | 0.00 | 0.00 | 0.00 | 39 | 1010.8 |
| 20260504160117 | 19 | 287 | 3.2 | 11.3 | 0.00 | 0.00 | 0.00 | 39 | 1011.8 |
| 20260504151117 | 17 | 257 | 1.6 | 12.9 | 0.00 | 0.00 | 0.00 | 43 | 1012.1 |
| 20260504150618 | 17 | 102 | 3.2 | 12.9 | 0.00 | 0.00 | 0.00 | 42 | 1012.2 |
| 20260504150116 | 17 | 192 | 4.8 | 9.7 | 0.00 | 0.00 | 0.00 | 43 | 1012.4 |
| 20260504141117 | 16 | 117 | 4.8 | 4.8 | 0.00 | 0.00 | 0.00 | 42 | 1012.8 |
| 20260504140838 | 16 | 180 | 3.2 | 4.8 | 0.00 | 0.00 | 0.00 | 44 | 1012.9 |
| 20260504140116 | 15 | 118 | 1.6 | 4.8 | 0.00 | 0.00 | 0.00 | 44 | 1012.8 |
| 20260504130616 | 13 | 72 | 0.0 | 1.6 | 0.00 | 0.00 | 0.00 | 52 | 1013.3 |
| 20260504130105 | 12 | 10 | 0.0 | 1.6 | 0.00 | 0.00 | 0.00 | 58 | 1013.3 |
| 20260504120256 | 8 | 328 | 0.0 | 0.0 | 0.00 | 0.00 | 0.00 | 66 | 1013.4 |
| 20260504110528 | 2 | 13 | 0.0 | 0.0 | 0.00 | 0.00 | 0.00 | 95 | 1013.4 |
| 20260504081639 | 1 | 12 | 0.0 | 0.0 | 0.00 | 0.00 | 0.00 | 95 | 1013.7 |
| 20260504080916 | 1 | 12 | 0.0 | 0.0 | 0.00 | 0.00 | 0.00 | 95 | 1013.9 |
| 20260504080416 | 1 | 12 | 0.0 | 0.0 | 0.00 | 0.00 | 0.00 | 95 | 1013.7 |
| 20260504080140 | 1 | 12 | 0.0 | 0.0 | 0.00 | 0.00 | 0.00 | 94 | 1013.7 |
| 20260504050416 | 3 | 13 | 0.0 | 0.0 | 0.00 | 0.00 | 0.00 | 90 | 1013.6 |
| 20260504045916 | 3 | 13 | 0.0 | 0.0 | 0.00 | 0.00 | 0.00 | 90 | 1013.6 |
| 20260504045416 | 3 | 13 | 0.0 | 0.0 | 0.00 | 0.00 | 0.00 | 89 | 1013.7 |
| 20260504044916 | 3 | 13 | 0.0 | 0.0 | 0.00 | 0.00 | 0.00 | 89 | 1013.9 |
| 20260504044415 | 4 | 13 | 0.0 | 0.0 | 0.00 | 0.00 | 0.00 | 88 | 1013.7 |
| 20260504044358 | 4 | 14 | 0.0 | 0.0 | 0.00 | 0.00 | 0.00 | 86 | 1013.8 |
| 20260504043416 | 4 | 14 | 0.0 | 0.0 | 0.00 | 0.00 | 0.00 | 87 | 1013.9 |
| 20260504042916 | 4 | 6 | 0.0 | 0.0 | 0.00 | 0.00 | 0.00 | 87 | 1013.7 |
| 20260504042416 | 4 | 6 | 0.0 | 0.0 | 0.00 | 0.00 | 0.00 | 86 | 1013.6 |
| 20260504041915 | 5 | 6 | 0.0 | 0.0 | 0.00 | 0.00 | 0.00 | 85 | 1013.7 |
| 20260504041416 | 5 | 6 | 0.0 | 0.0 | 0.00 | 0.00 | 0.00 | 80 | 1013.7 |
| 20260504040915 | 5 | 7 | 0.0 | 0.0 | 0.00 | 0.00 | 0.00 | 77 | 1013.8 |
| 20260504040910 | 5 | 6 | 0.0 | 0.0 | 0.00 | 0.00 | 0.00 | 86 | 1013.7 |
| 20260504035916 | 5 | 6 | 0.0 | 0.0 | 0.00 | 0.00 | 0.00 | 87 | 1013.8 |
| 20260504035416 | 5 | 4 | 0.0 | 0.0 | 0.00 | 0.00 | 0.00 | 84 | 1013.8 |
| 20260504035356 | 4 | 327 | 0.0 | 0.0 | 0.00 | 0.00 | 0.00 | 87 | 1013.8 |
| 20260504034415 | 4 | 332 | 0.0 | 0.0 | 0.00 | 0.00 | 0.00 | 88 | 1013.4 |
| 20260504033915 | 4 | 331 | 0.0 | 0.0 | 0.00 | 0.00 | 0.00 | 88 | 1013.5 |
| 20260504033416 | 4 | 333 | 0.0 | 0.0 | 0.00 | 0.00 | 0.00 | 88 | 1013.5 |
| 20260504032915 | 4 | 333 | 0.0 | 0.0 | 0.00 | 0.00 | 0.00 | 87 | 1013.3 |
| 20260504032415 | 4 | 333 | 0.0 | 0.0 | 0.00 | 0.00 | 0.00 | 87 | 1013.4 |
| 20260504031916 | 4 | 333 | 0.0 | 0.0 | 0.00 | 0.00 | 0.00 | 86 | 1013.5 |
| 20260504031416 | 4 | 333 | 0.0 | 0.0 | 0.00 | 0.00 | 0.00 | 86 | 1013.5 |
| 20260504030916 | 4 | 333 | 0.0 | 0.0 | 0.00 | 0.00 | 0.00 | 87 | 1013.6 |
| 20260504030416 | 5 | 333 | 0.0 | 0.0 | 0.00 | 0.00 | 0.00 | 86 | 1013.4 |
| 20260504025915 | 5 | 333 | 0.0 | 0.0 | 0.00 | 0.00 | 0.00 | 86 | 1013.3 |
| 20260504025404 | 5 | 333 | 0.0 | 0.0 | 0.00 | 0.00 | 0.00 | 86 | 1013.2 |
| 20260504024904 | 5 | 333 | 0.0 | 0.0 | 0.00 | 0.00 | 0.00 | 86 | 1013.2 |
| 20260504024404 | 5 | 333 | 0.0 | 0.0 | 0.00 | 0.00 | 0.00 | 86 | 1013.3 |
| 20260504024125 | 5 | 333 | 0.0 | 0.0 | 0.00 | 0.00 | 0.00 | 86 | 1013.5 |
| 20260504023403 | 5 | 333 | 0.0 | 0.0 | 0.00 | 0.00 | 0.00 | 85 | 1013.2 |
| 20260504022903 | 5 | 333 | 0.0 | 0.0 | 0.00 | 0.00 | 0.00 | 85 | 1013.5 |
| 20260504022404 | 5 | 333 | 0.0 | 0.0 | 0.00 | 0.00 | 0.00 | 85 | 1013.1 |
| 20260504021903 | 5 | 333 | 0.0 | 0.0 | 0.00 | 0.00 | 0.00 | 84 | 1013.4 |
| 20260504021404 | 5 | 333 | 0.0 | 0.0 | 0.00 | 0.00 | 0.00 | 85 | 1013.3 |
| 20260504020903 | 6 | 333 | 0.0 | 0.0 | 0.00 | 0.00 | 0.00 | 83 | 1013.2 |
| 20260504020629 | 6 | 333 | 0.0 | 0.0 | 0.00 | 0.00 | 0.00 | 83 | 1013.6 |
| 20260504015904 | 6 | 333 | 0.0 | 0.0 | 0.00 | 0.00 | 0.00 | 82 | 1013.3 |
| 20260504015403 | 6 | 333 | 0.0 | 0.0 | 0.00 | 0.00 | 0.00 | 82 | 1013.4 |
| 20260504015124 | 6 | 333 | 0.0 | 0.0 | 0.00 | 0.00 | 0.00 | 81 | 1013.4 |
| 20260504014404 | 6 | 333 | 0.0 | 0.0 | 0.00 | 0.00 | 0.00 | 81 | 1013.1 |
| 20260504013904 | 6 | 333 | 0.0 | 0.0 | 0.00 | 0.00 | 0.00 | 80 | 1013.2 |
| 20260504013624 | 7 | 333 | 0.0 | 0.0 | 0.00 | 0.00 | 0.00 | 78 | 1013.1 |
| 20260504012904 | 7 | 2 | 0.0 | 0.0 | 0.00 | 0.00 | 0.00 | 78 | 1013.2 |
| 20260504012404 | 7 | 4 | 0.0 | 0.0 | 0.00 | 0.00 | 0.00 | 79 | 1013.2 |
| 20260504011903 | 7 | 4 | 0.0 | 0.0 | 0.00 | 0.00 | 0.00 | 76 | 1013.3 |
| 20260504011403 | 7 | 4 | 0.0 | 0.0 | 0.00 | 0.00 | 0.00 | 74 | 1013.2 |
| 20260504010904 | 8 | 4 | 0.0 | 0.0 | 0.00 | 0.00 | 0.00 | 73 | 1013.1 |
| 20260504010629 | 8 | 4 | 0.0 | 0.0 | 0.00 | 0.00 | 0.00 | 71 | 1013.3 |
| 20260504005904 | 8 | 4 | 0.0 | 0.0 | 0.00 | 0.00 | 0.00 | 71 | 1013.2 |
| 20260504005403 | 9 | 4 | 0.0 | 0.0 | 0.00 | 0.00 | 0.00 | 66 | 1013.1 |
| 20260504004903 | 10 | 4 | 0.0 | 0.0 | 0.00 | 0.00 | 0.00 | 60 | 1013.0 |
| 20260504004625 | 10 | 4 | 0.0 | 0.0 | 0.00 | 0.00 | 0.00 | 62 | 1013.0 |
| 20260504003852 | 10 | 5 | 0.0 | 0.0 | 0.00 | 0.00 | 0.00 | 51 | 1013.0 |
| 20260504003616 | 11 | 5 | 0.0 | 0.0 | 0.00 | 0.00 | 0.00 | 51 | 1012.8 |
| 20260504002852 | 11 | 5 | 0.0 | 0.0 | 0.00 | 0.00 | 0.00 | 48 | 1012.8 |
| 20260504002340 | 11 | 2 | 0.0 | 0.0 | 0.00 | 0.00 | 0.00 | 51 | 1012.5 |
| 20260504001840 | 12 | 3 | 0.0 | 0.0 | 0.00 | 0.00 | 0.00 | 49 | 1012.8 |
| 20260504001600 | 12 | 15 | 0.0 | 1.6 | 0.00 | 0.00 | 0.00 | 48 | 1012.7 |
| 20260504000827 | 12 | 25 | 0.0 | 0.0 | 0.00 | 0.00 | 0.00 | 41 | 1012.5 |
| 20260504000327 | 12 | 330 | 0.0 | 1.6 | 0.00 | 0.00 | 0.00 | 44 | 1012.7 |
| 20260504000316 | 13 | 330 | 0.0 | 1.6 | 0.00 | 0.00 | 0.00 | 42 | 1012.5 |
| 20260503235315 | 13 | 260 | 0.0 | 1.6 | 0.00 | 0.00 | 0.00 | 39 | 1012.3 |
| 20260503234816 | 13 | 323 | 0.0 | 1.6 | 0.00 | 0.00 | 0.00 | 42 | 1012.1 |
| 20260503234315 | 13 | 309 | 0.0 | 4.8 | 0.00 | 0.00 | 0.00 | 38 | 1012.3 |
| 20260503233816 | 14 | 8 | 0.0 | 4.8 | 0.00 | 0.00 | 0.00 | 37 | 1012.3 |
| 20260503233316 | 14 | 12 | 0.0 | 4.8 | 0.00 | 0.00 | 0.00 | 37 | 1012.5 |
| 20260503232815 | 14 | 273 | 0.0 | 3.2 | 0.00 | 0.00 | 0.00 | 37 | 1012.3 |
| 20260503232315 | 14 | 4 | 0.0 | 4.8 | 0.00 | 0.00 | 0.00 | 37 | 1012.2 |
| 20260503232039 | 14 | 16 | 1.6 | 6.4 | 0.00 | 0.00 | 0.00 | 36 | 1012.4 |
| 20260503231316 | 15 | 332 | 0.0 | 11.3 | 0.00 | 0.00 | 0.00 | 38 | 1012.2 |
| 20260503230815 | 15 | 234 | 3.2 | 11.3 | 0.00 | 0.00 | 0.00 | 35 | 1012.2 |
| 20260503230316 | 15 | 315 | 0.0 | 9.7 | 0.00 | 0.00 | 0.00 | 36 | 1012.1 |
| 20260503225816 | 16 | 330 | 3.2 | 9.7 | 0.00 | 0.00 | 0.00 | 36 | 1012.1 |
| 20260503225315 | 15 | 333 | 0.0 | 14.5 | 0.00 | 0.00 | 0.00 | 35 | 1012.3 |
| 20260503224816 | 16 | 278 | 0.0 | 14.5 | 0.00 | 0.00 | 0.00 | 35 | 1012.2 |
| 20260503224317 | 16 | 321 | 0.0 | 9.7 | 0.00 | 0.00 | 0.00 | 34 | 1012.2 |
| 20260503223816 | 16 | 291 | 1.6 | 6.4 | 0.00 | 0.00 | 0.00 | 34 | 1012.2 |
| 20260503223315 | 15 | 294 | 3.2 | 11.3 | 0.00 | 0.00 | 0.00 | 35 | 1012.1 |
| 20260503222815 | 15 | 302 | 6.4 | 11.3 | 0.00 | 0.00 | 0.00 | 35 | 1012.5 |
| 20260503222546 | 16 | 20 | 4.8 | 11.3 | 0.00 | 0.00 | 0.00 | 34 | 1012.3 |
| 20260503221814 | 16 | 331 | 3.2 | 11.3 | 0.00 | 0.00 | 0.00 | 35 | 1012.1 |
| 20260503221534 | 16 | 286 | 3.2 | 12.9 | 0.00 | 0.00 | 0.00 | 35 | 1012.2 |
| 20260503220314 | 16 | 297 | 0.0 | 6.4 | 0.00 | 0.00 | 0.00 | 35 | 1012.1 |
| 20260503220256 | 15 | 248 | 0.0 | 11.3 | 0.00 | 0.00 | 0.00 | 36 | 1012.2 |